Data for 02/07/2018

Time Sea-Level Adjusted Pressure Absolute Pressure Temperature Relative Humidity Dew Point   
(mb) (inHg) (mb) (inHg) (C) (F) (%) (C) (F)
00:05 1022 30.18 851 25.13 -6.2 20.9 86 -8.2 17.3
00:10 1022 30.18 851 25.13 -6.2 20.8 87 -8.1 17.4
00:15 1022 30.18 851 25.13 -6 21.3 87 -7.7 18.1
00:20 1022 30.18 851 25.13 -5.4 22.3 85 -7.6 18.4
00:25 1022 30.18 851 25.13 -5.3 22.4 84 -7.7 18.2
00:30 1021 30.15 851 25.13 -5.4 22.2 85 -7.6 18.4
00:35 1021 30.15 851 25.13 -5.1 22.8 84 -7.4 18.7
00:40 1021 30.15 851 25.13 -5 23 84 -7.4 18.8
00:45 1021 30.15 851 25.13 -5 22.9 84 -7.4 18.7
00:50 1021 30.15 850 25.1 -4.7 23.5 83 -7.2 19
00:55 1021 30.15 850 25.1 -4.1 24.7 80 -7.1 19.2
01:00 1021 30.15 850 25.1 -3.8 25.2 79 -6.9 19.6
01:05 1021 30.15 850 25.1 -3.7 25.3 79 -6.9 19.6
01:10 1021 30.15 850 25.1 -3.9 25 80 -6.9 19.6
01:15 1021 30.15 850 25.1 -3.8 25.2 79 -7 19.4
01:20 1021 30.15 850 25.1 -3.6 25.5 78 -6.9 19.6
01:25 1021 30.15 850 25.1 -3.2 26.3 76 -6.8 19.8
01:30 1021 30.15 850 25.1 -2.8 26.9 72 -7.2 19
01:35 1021 30.15 850 25.1 -2.4 27.6 70 -7.1 19.2
01:40 1021 30.15 850 25.1 -2.7 27.2 73 -6.9 19.7
01:45 1021 30.15 850 25.1 -3.4 25.9 77 -6.9 19.6
01:50 1021 30.15 850 25.1 -3.8 25.1 79 -7 19.4
01:55 1021 30.15 850 25.1 -3.9 25 79 -7 19.4
02:00 1021 30.15 850 25.1 -4.2 24.5 81 -7 19.4
02:05 1021 30.15 850 25.1 -4.3 24.3 81 -7.1 19.2
02:10 1021 30.15 850 25.1 -3.6 25.6 76 -7.3 18.9
02:15 1021 30.15 850 25.1 -3.2 26.2 75 -7.1 19.2
02:20 1021 30.15 850 25.1 -3 26.5 75 -6.8 19.7
02:25 1021 30.15 850 25.1 -3 26.5 75 -6.8 19.7
02:30 1021 30.15 850 25.1 -3 26.5 75 -6.8 19.7
02:35 1021 30.15 850 25.1 -3 26.6 75 -6.9 19.6
02:40 1021 30.15 850 25.1 -3 26.6 75 -6.7 19.9
02:45 1021 30.15 850 25.1 -3 26.7 75 -6.8 19.8
02:50 1021 30.15 850 25.1 -3 26.5 77 -6.5 20.3
02:55 1021 30.15 850 25.1 -2.9 26.7 76 -6.5 20.2
03:00 1021 30.15 850 25.1 -2.5 27.5 74 -6.5 20.3
03:05 1021 30.15 850 25.1 -2.2 28.1 72 -6.5 20.3
03:10 1021 30.15 850 25.1 -2.2 28 72 -6.6 20.1
03:15 1020 30.12 850 25.1 -1.9 28.5 71 -6.6 20.2
03:20 1020 30.12 850 25.1 -1.8 28.7 68 -6.9 19.6
03:25 1020 30.12 850 25.1 -1.8 28.8 68 -6.9 19.7
03:30 1020 30.12 850 25.1 -1.8 28.8 70 -6.6 20.2
03:35 1020 30.12 850 25.1 -1.6 29.2 67 -7 19.4
03:40 1020 30.12 849 25.07 -1.2 29.8 64 -7.2 19.1
03:45 1020 30.12 850 25.1 -0.7 30.8 61 -7.3 18.9
03:50 1020 30.12 849 25.07 -0.3 31.4 61 -7 19.4
03:55 1020 30.12 849 25.07 -0.3 31.4 61 -6.8 19.7
04:00 1020 30.12 849 25.07 -0.5 31 67 -5.9 21.4
04:05 1020 30.12 849 25.07 -1.2 29.8 70 -6.1 21
04:10 1020 30.12 849 25.07 -1.1 30 66 -6.7 19.9
04:15 1020 30.12 849 25.07 -0.8 30.5 63 -7.1 19.3
04:20 1020 30.12 849 25.07 -0.4 31.2 63 -6.6 20.2
04:25 1020 30.12 849 25.07 -0.4 31.3 62 -6.8 19.7
04:30 1020 30.12 849 25.07 -0.1 31.8 59 -7.2 19.1
04:35 1020 30.12 849 25.07 -0 32 61 -6.7 19.9
04:40 1020 30.12 849 25.07 -0.3 31.4 62 -6.8 19.8
04:45 1020 30.12 849 25.07 -0.2 31.6 62 -6.7 19.9
04:50 1020 30.12 849 25.07 -0.2 31.6 63 -6.5 20.2
04:55 1020 30.12 849 25.07 -0.2 31.7 60 -7 19.4
05:00 1020 30.12 850 25.1 -0.1 31.9 60 -6.8 19.7
05:05 1020 30.12 849 25.07 -0 32 60 -7 19.4
05:10 1020 30.12 849 25.07 0.2 32.3 60 -6.7 19.9
05:15 1020 30.12 849 25.07 0.2 32.4 58 -7 19.4
05:20 1020 30.12 849 25.07 0.2 32.4 59 -6.8 19.8
05:25 1020 30.12 849 25.07 0.1 32.3 60 -6.8 19.8
05:30 1020 30.12 849 25.07 0.1 32.1 60 -6.9 19.6
05:35 1020 30.12 849 25.07 0.1 32.2 59 -7 19.4
05:40 1020 30.12 849 25.07 0.3 32.6 59 -6.8 19.8
05:45 1020 30.12 849 25.07 0.4 32.7 59 -6.7 19.9
05:50 1020 30.12 850 25.1 0.2 32.4 59 -6.8 19.8
05:55 1020 30.12 850 25.1 0.2 32.4 59 -6.8 19.7
06:00 1020 30.12 849 25.07 0.3 32.5 60 -6.7 19.9
06:05 1020 30.12 849 25.07 0.3 32.5 60 -6.6 20.1
06:10 1020 30.12 849 25.07 0.2 32.4 60 -6.7 19.9
06:15 1020 30.12 849 25.07 0.1 32.2 61 -6.6 20.1
06:20 1020 30.12 849 25.07 0.1 32.2 62 -6.4 20.5
06:25 1020 30.12 849 25.07 0.1 32.3 62 -6.4 20.5
06:30 1020 30.12 850 25.1 0.2 32.4 61 -6.5 20.4
06:35 1020 30.12 850 25.1 0.4 32.8 59 -6.6 20.1
06:40 1020 30.12 850 25.1 0.7 33.2 59 -6.4 20.5
06:45 1021 30.15 850 25.1 0.7 33.3 60 -6.2 20.8
06:50 1021 30.15 850 25.1 0.7 33.3 60 -6.2 20.9
06:55 1021 30.15 850 25.1 0.7 33.2 61 -6 21.1
07:00 1021 30.15 850 25.1 0.7 33.2 62 -5.8 21.6
07:05 1021 30.15 850 25.1 0.7 33.3 62 -5.8 21.5
07:10 1021 30.15 850 25.1 0.9 33.6 62 -5.6 21.9
07:15 1021 30.15 850 25.1 0.9 33.6 61 -5.8 21.6
07:20 1021 30.15 850 25.1 1.4 34.4 58 -5.9 21.3
07:25 1021 30.15 850 25.1 1.6 34.9 59 -5.6 22
07:30 1021 30.15 850 25.1 1.7 35.1 57 -5.9 21.4
07:35 1021 30.15 850 25.1 2 35.7 55 -6.2 20.8
07:40 1021 30.15 850 25.1 2.3 36.1 56 -5.6 21.8
07:45 1021 30.15 850 25.1 2.1 35.8 57 -5.5 22.2
07:50 1021 30.15 850 25.1 2 35.6 58 -5.5 22.1
07:55 1021 30.15 850 25.1 2.1 35.7 57 -5.6 21.9
08:00 1021 30.15 850 25.1 2.2 35.9 58 -5.3 22.5
08:05 1021 30.15 850 25.1 2 35.7 58 -5.3 22.4
08:10 1021 30.15 850 25.1 2 35.5 58 -5.4 22.3
08:15 1021 30.15 850 25.1 2.1 35.7 57 -5.6 22
08:20 1021 30.15 850 25.1 2.2 35.9 57 -5.4 22.3
08:25 1021 30.15 850 25.1 2.2 35.9 58 -5.2 22.6
08:30 1021 30.15 850 25.1 2.1 35.8 58 -5.2 22.6
08:35 1021 30.15 850 25.1 2.1 35.7 59 -5.2 22.6
08:40 1021 30.15 850 25.1 2.1 35.7 58 -5.3 22.4
08:45 1021 30.15 850 25.1 2.2 35.9 58 -5.2 22.6
08:50 1021 30.15 850 25.1 2.2 36 58 -5.1 22.7
08:55 1021 30.15 850 25.1 2.3 36.2 59 -4.9 23.2
09:00 1021 30.15 850 25.1 2.3 36.2 59 -4.9 23.1
09:05 1021 30.15 851 25.13 2.4 36.4 58 -4.9 23.2
09:10 1021 30.15 850 25.1 2.6 36.7 58 -4.8 23.3
09:15 1021 30.15 850 25.1 2.8 37 58 -4.8 23.4
09:20 1021 30.15 850 25.1 3 37.3 57 -4.7 23.6
09:25 1021 30.15 850 25.1 3.1 37.6 56 -4.8 23.4
09:30 1021 30.15 850 25.1 3.2 37.8 56 -4.8 23.4
09:35 1021 30.15 851 25.13 3.4 38.1 56 -4.5 23.9
09:40 1021 30.15 851 25.13 3.5 38.3 57 -4.3 24.3
09:45 1021 30.15 851 25.13 3.7 38.6 57 -4.2 24.5
09:50 1022 30.18 851 25.13 3.7 38.7 56 -4.2 24.4
09:55 1022 30.18 851 25.13 3.6 38.6 56 -4.3 24.3
10:00 1022 30.18 851 25.13 3.7 38.6 56 -4.4 24.1
10:05 1022 30.18 851 25.13 3.8 38.8 56 -4.1 24.6
10:10 1022 30.18 851 25.13 3.8 38.8 57 -4 24.7
10:15 1022 30.18 851 25.13 3.9 38.9 57 -3.9 24.9
10:20 1022 30.18 851 25.13 3.9 39 55 -4.3 24.3
10:25 1022 30.18 851 25.13 4 39.2 56 -4 24.8
10:30 1022 30.18 851 25.13 4.1 39.3 57 -3.8 25.2
10:35 1022 30.18 851 25.13 4.2 39.6 55 -4 24.8
10:40 1022 30.18 851 25.13 4.5 40 55 -3.7 25.3
10:45 1022 30.18 851 25.13 4.5 40.1 54 -4 24.8
10:50 1022 30.18 851 25.13 4.6 40.2 55 -3.7 25.3
10:55 1022 30.18 851 25.13 4.5 40.1 56 -3.6 25.6
11:00 1022 30.18 851 25.13 4.5 40.1 56 -3.4 25.9
11:05 1022 30.18 851 25.13 4.5 40 57 -3.2 26.2
11:10 1022 30.18 851 25.13 4.1 39.4 60 -3.1 26.5
11:15 1022 30.18 851 25.13 3.9 39 61 -3.1 26.5
11:20 1022 30.18 851 25.13 3.6 38.6 62 -2.9 26.8
11:25 1022 30.18 851 25.13 3.5 38.3 65 -2.6 27.4
11:30 1022 30.18 851 25.13 3.5 38.3 64 -2.7 27.1
11:35 1022 30.18 851 25.13 3.5 38.3 65 -2.5 27.4
11:40 1022 30.18 851 25.13 3.5 38.3 64 -2.6 27.3
11:45 1022 30.18 851 25.13 3.5 38.4 65 -2.5 27.6
11:50 1022 30.18 851 25.13 3.7 38.7 65 -2.3 27.8
11:55 1022 30.18 851 25.13 3.9 39.1 64 -2.2 28.1
12:00 1022 30.18 851 25.13 4 39.2 65 -2 28.5
12:05 1021 30.15 851 25.13 4.3 39.7 64 -1.9 28.5
12:10 1021 30.15 851 25.13 4.1 39.4 64 -2 28.3
12:15 1021 30.15 851 25.13 3.9 39.1 66 -1.9 28.6
12:20 1021 30.15 850 25.1 4.3 39.7 63 -2.1 28.3
12:25 1021 30.15 850 25.1 4.9 40.7 60 -2.1 28.1
12:30 1021 30.15 850 25.1 5.1 41.1 60 -2.1 28.2
12:35 1021 30.15 850 25.1 5.3 41.5 59 -2 28.4
12:40 1021 30.15 850 25.1 5.4 41.7 59 -1.9 28.6
12:45 1021 30.15 850 25.1 5.4 41.8 60 -1.6 29.1
12:50 1021 30.15 850 25.1 5.4 41.8 59 -1.9 28.6
12:55 1021 30.15 850 25.1 5.4 41.6 59 -1.9 28.6
13:00 1021 30.15 850 25.1 5.3 41.6 60 -1.8 28.8
13:05 1021 30.15 850 25.1 5.2 41.4 59 -2.1 28.2
13:10 1021 30.15 850 25.1 5.3 41.5 59 -2.1 28.2
13:15 1021 30.15 850 25.1 5.3 41.6 59 -2 28.4
13:20 1021 30.15 850 25.1 5.3 41.6 59 -2 28.3
13:25 1021 30.15 850 25.1 5.3 41.6 59 -2.1 28.3
13:30 1021 30.15 850 25.1 5.2 41.3 60 -2 28.5
13:35 1021 30.15 850 25.1 5.1 41.2 59 -2.2 28
13:40 1021 30.15 850 25.1 5.2 41.3 58 -2.5 27.5
13:45 1021 30.15 850 25.1 5.4 41.6 58 -2.3 27.9
13:50 1021 30.15 850 25.1 5.3 41.6 57 -2.4 27.7
13:55 1021 30.15 850 25.1 5.3 41.5 58 -2.4 27.7
14:00 1021 30.15 850 25.1 5.3 41.6 56 -2.8 26.9
14:05 1021 30.15 850 25.1 5.6 42.1 55 -2.8 26.9
14:10 1021 30.15 850 25.1 5.7 42.3 56 -2.4 27.8
14:15 1021 30.15 850 25.1 5.6 42.1 57 -2.3 27.8
14:20 1021 30.15 850 25.1 5.5 41.9 58 -2 28.3
14:25 1021 30.15 850 25.1 5.4 41.7 58 -2.3 27.9
14:30 1021 30.15 851 25.13 5.3 41.5 58 -2.3 27.8
14:35 1021 30.15 851 25.13 5.3 41.5 58 -2.3 27.8
14:40 1022 30.18 851 25.13 5.3 41.5 56 -2.7 27.2
14:45 1022 30.18 851 25.13 5.4 41.7 56 -2.7 27.1
14:50 1022 30.18 851 25.13 5.5 41.9 56 -2.5 27.5
14:55 1022 30.18 851 25.13 5.5 41.9 56 -2.6 27.3
15:00 1022 30.18 851 25.13 5.5 42 56 -2.6 27.3
15:05 1022 30.18 851 25.13 5.5 42 56 -2.4 27.6
15:10 1022 30.18 851 25.13 5.5 41.8 56 -2.5 27.4
15:15 1022 30.18 851 25.13 5.6 42 57 -2.3 27.9
15:20 1022 30.18 851 25.13 5.5 42 57 -2.2 28
15:25 1022 30.18 851 25.13 5.4 41.8 57 -2.5 27.6
15:30 1022 30.18 851 25.13 5.4 41.8 58 -2.2 28.1
15:35 1022 30.18 851 25.13 5.5 41.9 56 -2.6 27.4
15:40 1022 30.18 851 25.13 5.5 41.9 56 -2.6 27.4
15:45 1022 30.18 851 25.13 5.6 42.1 56 -2.6 27.4
15:50 1022 30.18 851 25.13 5.5 42 56 -2.6 27.3
15:55 1022 30.18 851 25.13 5.6 42.2 56 -2.5 27.5
16:00 1022 30.18 851 25.13 5.6 42.1 56 -2.5 27.4
16:05 1022 30.18 851 25.13 5.7 42.2 56 -2.5 27.5
16:10 1022 30.18 851 25.13 5.6 42.2 58 -2 28.4
16:15 1022 30.18 851 25.13 5.5 41.8 58 -2.1 28.2
16:20 1022 30.18 851 25.13 5.4 41.8 59 -1.9 28.5
16:25 1022 30.18 851 25.13 5.3 41.5 59 -2.1 28.3
16:30 1021 30.15 851 25.13 5.3 41.5 58 -2.2 28
16:35 1022 30.18 851 25.13 5.4 41.8 58 -2.3 27.9
16:40 1022 30.18 851 25.13 5.5 41.9 57 -2.2 28
16:45 1022 30.18 851 25.13 5.6 42 59 -1.8 28.8
16:50 1022 30.18 851 25.13 5.3 41.6 59 -2.1 28.2
16:55 1022 30.18 851 25.13 5.3 41.6 56 -2.6 27.3
17:00 1022 30.18 851 25.13 5.6 42.1 55 -2.7 27.2
17:05 1022 30.18 851 25.13 5.5 42 57 -2.4 27.6
17:10 1022 30.18 851 25.13 5.5 41.9 57 -2.3 27.8
17:15 1022 30.18 851 25.13 5.5 42 54 -3 26.5
17:20 1022 30.18 851 25.13 5.7 42.3 54 -2.9 26.9
17:25 1022 30.18 851 25.13 5.8 42.4 56 -2.4 27.6
17:30 1022 30.18 851 25.13 5.8 42.4 56 -2.3 27.8
17:35 1022 30.18 851 25.13 5.8 42.4 56 -2.2 28
17:40 1022 30.18 851 25.13 5.7 42.2 57 -2.2 28
17:45 1022 30.18 851 25.13 5.7 42.2 55 -2.6 27.3
17:50 1022 30.18 851 25.13 5.9 42.6 55 -2.5 27.5
17:55 1022 30.18 851 25.13 6 42.8 55 -2.3 27.8
18:00 1022 30.18 851 25.13 6.1 43 55 -2.3 27.8
18:05 1022 30.18 851 25.13 6.2 43.1 55 -2.1 28.2
18:10 1022 30.18 851 25.13 6 42.9 54 -2.6 27.3
18:15 1022 30.18 851 25.13 6 42.8 54 -2.5 27.4
18:20 1022 30.18 851 25.13 6.3 43.3 53 -2.6 27.2
18:25 1022 30.18 851 25.13 6.3 43.4 53 -2.4 27.6
18:30 1022 30.18 851 25.13 6.4 43.5 53 -2.5 27.5
18:35 1022 30.18 851 25.13 6.5 43.7 53 -2.4 27.7
18:40 1022 30.18 851 25.13 6.6 43.9 53 -2.3 27.9
18:45 1022 30.18 851 25.13 6.6 43.9 54 -2.1 28.2
18:50 1022 30.18 851 25.13 6.5 43.8 55 -2 28.5
18:55 1022 30.18 851 25.13 6.4 43.5 55 -2 28.5
19:00 1022 30.18 851 25.13 6.2 43.2 56 -1.9 28.6
19:05 1022 30.18 851 25.13 6.1 43 57 -1.8 28.7
19:10 1022 30.18 851 25.13 6 42.8 57 -1.8 28.7
19:15 1022 30.18 851 25.13 5.8 42.5 58 -1.8 28.8
19:20 1022 30.18 851 25.13 5.7 42.3 58 -1.9 28.6
19:25 1022 30.18 851 25.13 5.8 42.4 57 -2.2 28.1
19:30 1022 30.18 851 25.13 6.1 42.9 55 -2.3 27.8
19:35 1022 30.18 851 25.13 6.3 43.3 55 -2.2 28.1
19:40 1022 30.18 851 25.13 6.3 43.3 54 -2.2 28
19:45 1022 30.18 851 25.13 6.3 43.4 54 -2.2 28.1
19:50 1022 30.18 851 25.13 6.4 43.5 55 -2 28.3
19:55 1022 30.18 851 25.13 6.5 43.6 53 -2.3 27.8
20:00 1022 30.18 851 25.13 6.7 44 53 -2.3 27.8
20:05 1022 30.18 851 25.13 6.6 44 53 -2.2 28.1
20:10 1022 30.18 851 25.13 6.5 43.7 53 -2.3 27.9
20:15 1022 30.18 851 25.13 6.5 43.7 53 -2.4 27.6
20:20 1022 30.18 851 25.13 6.7 44 52 -2.5 27.6
20:25 1022 30.18 851 25.13 6.7 44 53 -2.3 27.8
20:30 1022 30.18 851 25.13 6.5 43.7 53 -2.3 27.8
20:35 1022 30.18 851 25.13 6.4 43.5 53 -2.4 27.7
20:40 1022 30.18 851 25.13 6.4 43.5 52 -2.6 27.3
20:45 1022 30.18 851 25.13 6.5 43.8 52 -2.5 27.5
20:50 1022 30.18 851 25.13 6.5 43.8 52 -2.5 27.4
20:55 1022 30.18 851 25.13 6.5 43.6 53 -2.5 27.5
21:00 1022 30.18 851 25.13 6.5 43.7 53 -2.5 27.6
21:05 1022 30.18 851 25.13 6.7 44.1 51 -2.6 27.3
21:10 1022 30.18 851 25.13 6.7 44.1 51 -2.6 27.3
21:15 1022 30.18 851 25.13 6.8 44.2 50 -2.9 26.8
21:20 1022 30.18 851 25.13 6.9 44.5 51 -2.6 27.3
21:25 1022 30.18 851 25.13 6.8 44.2 51 -2.7 27.1
21:30 1021 30.15 851 25.13 6.8 44.2 51 -2.7 27.1
21:35 1021 30.15 851 25.13 6.9 44.4 50 -2.9 26.9
21:40 1021 30.15 851 25.13 6.8 44.3 50 -2.8 27
21:45 1021 30.15 851 25.13 6.7 44.1 52 -2.5 27.6
21:50 1021 30.15 850 25.1 6.8 44.2 49 -3.1 26.4
21:55 1021 30.15 850 25.1 7.1 44.7 49 -2.9 26.8
22:00 1021 30.15 850 25.1 6.9 44.5 50 -2.7 27.1
22:05 1021 30.15 850 25.1 7 44.5 49 -3 26.5
22:10 1021 30.15 850 25.1 7 44.7 49 -2.9 26.8
22:15 1021 30.15 850 25.1 6.9 44.4 50 -2.7 27.1
22:20 1021 30.15 850 25.1 6.8 44.2 51 -2.7 27.1
22:25 1021 30.15 850 25.1 6.6 44 51 -2.7 27.1
22:30 1021 30.15 850 25.1 6.7 44 50 -3.1 26.4
22:35 1021 30.15 850 25.1 6.8 44.2 49 -3.1 26.4
22:40 1021 30.15 850 25.1 7.1 44.7 48 -3 26.5
22:45 1021 30.15 850 25.1 7 44.7 49 -2.9 26.7
22:50 1020 30.12 850 25.1 7.1 44.8 48 -3.1 26.5
22:55 1020 30.12 850 25.1 7.1 44.8 50 -2.7 27.2
23:00 1020 30.12 849 25.07 6.9 44.5 50 -2.8 26.9
23:05 1020 30.12 849 25.07 7 44.6 49 -3 26.7
23:10 1020 30.12 849 25.07 7 44.5 49 -3 26.6
23:15 1020 30.12 849 25.07 7.1 44.8 49 -3 26.7
23:20 1020 30.12 849 25.07 7.1 44.8 49 -2.9 26.8
23:25 1020 30.12 849 25.07 7 44.7 49 -2.9 26.7
23:30 1020 30.12 849 25.07 7.2 44.9 48 -3.2 26.2
23:35 1020 30.12 849 25.07 7.3 45.2 49 -2.8 27
23:40 1020 30.12 849 25.07 7.3 45.1 48 -3 26.6
23:45 1020 30.12 849 25.07 7.3 45.1 49 -2.8 27
23:50 1020 30.12 849 25.07 7.3 45.2 48 -3 26.6
23:55 1020 30.12 849 25.07 7.3 45.2 48 -2.9 26.9
24:00 1020 30.12 849 25.07 7.4 45.2 48 -3 26.6